Location: Newark
(49.9819°N, 3.0344°E)
Time: 10:24:16
(UTC+00:00)

ISS - Pass Details

Date: 31 January 2020
Orbit: 415 x 422 km, 51.6° (Epoch: 23 February)

Event Time Altitude Azimuth Distance (km) Brightness Sun altitude
Rises 18:14:36 0° 281° (W) 2,380 1.5 -15.3°
Reaches altitude 10° 18:16:43 10° 284° (WNW) 1,513 0.2 -15.7°
Maximum altitude 18:20:06 69° 7° (N) 456 -3.7 -16.2°
Enters shadow 18:21:04 42° 77° (ENE) 612 -3.4 -16.4°
